Location: Newark
(44.6028°N, 124.0883°W)
Time: 00:48:22
(UTC+00:00)

Vanguard 3 - All Passes

Search period start: 17 October 2019 00:00
Search period end: 27 October 2019 00:00
Orbit: 508 x 3262 km, 33.3° (Epoch: 15 October)

Date Brightness Start Highest point End Pass type
(mag) Time Alt. Az. Time Alt. Az. Time Alt. Az.
17 Oct - 10:21:47 10° SW 10:25:08 23° S 10:29:38 10° ESE visible
17 Oct - 12:31:49 10° WSW 12:36:17 24° S 12:42:50 10° SE visible
17 Oct - 14:44:16 10° SW 14:48:21 14° SSW 14:53:29 10° S daylight
18 Oct - 09:09:27 10° SSW 09:11:52 16° SSE 09:14:38 10° SE night (unlit)
18 Oct - 11:18:53 10° SW 11:22:35 23° S 11:27:47 10° SE visible
18 Oct - 13:30:00 10° SW 13:34:08 17° SSW 13:39:42 10° SSE visible
19 Oct - 10:06:07 10° SW 10:09:09 20° S 10:12:59 10° SE visible
19 Oct - 12:16:31 10° SW 12:20:14 19° S 12:25:16 10° SSE visible
20 Oct - 08:53:32 10° SSW 08:55:51 16° SSE 08:58:25 10° SE night (unlit)
20 Oct - 11:03:26 10° SW 11:06:36 20° S 11:10:45 10° SE visible
20 Oct - 13:15:29 10° SW 13:18:01 12° SSW 13:21:02 10° S visible
21 Oct - 07:41:23 10° S 07:42:35 11° SSE 07:43:45 10° SSE night (unlit)
21 Oct - 09:50:29 10° SW 09:53:11 18° S 09:56:24 10° SE night (unlit)
21 Oct - 12:01:29 10° SW 12:04:12 14° S 12:07:34 10° SSE visible
22 Oct - 08:37:34 10° SSW 08:39:53 16° S 08:42:18 10° SE night (unlit)
22 Oct - 10:48:05 10° SW 10:50:38 16° S 10:53:41 10° SSE visible
23 Oct - 07:24:39 10° SSW 07:26:33 13° S 07:28:23 10° SE night (unlit)
23 Oct - 09:34:50 10° SW 09:37:14 16° S 09:39:53 10° SE night (unlit)
23 Oct - 11:47:34 10° SSW 11:48:12 10° SSW 11:48:50 10° S visible
24 Oct - 06:12:04 10° S 06:13:09 11° SSE 06:14:10 10° SSE night (unlit)
24 Oct - 08:21:32 10° SW 08:23:55 16° S 08:26:17 10° SE night (unlit)
24 Oct - 10:32:58 10° SW 10:34:39 12° S 10:36:29 10° SSE night (unlit)
25 Oct - 07:08:02 10° SSW 07:10:35 15° S 07:12:52 10° SE night (unlit)
25 Oct - 09:19:11 10° SW 09:21:15 14° S 09:23:25 10° SSE night (unlit)
26 Oct - 05:54:23 10° SSW 05:57:09 14° S 05:59:30 10° SE night (unlit)
26 Oct - 08:05:25 10° SW 08:07:57 16° S 08:10:20 10° SE night (unlit)
